Regional Weather Roundup
Issued by NWS

Home | Current Version | Previous Version | Text Only | Print | Product List | Glossary On
Versions: 1 2 3 4 5 6 7 8 9 10 11 12 13 14 15 16 17 18 19 20 21 22 23 24 25 26 27 28 29 30 31 32 33 34 35 36 37 38 39 40 41 42 43 44 45 46 47 48 49 50
000
ASUS43 KTOP 271959
RWRKS

WEATHER ROUNDUP FOR KANSAS
NATIONAL WEATHER SERVICE GOODLAND KS
300 PM CDT FRI MAY 27 2016

NOTE:  "FAIR" INDICATES FEW OR NO CLOUDS BELOW 12,000 FEET WITH NO
SIGNIFICANT WEATHER AND/OR OBSTRUCTIONS TO VISIBILITY.

KSZ001>006-013>018-027>032-041>047-272100-
NORTHWEST KANSAS

CITY           SKY/WX    TMP DP  RH WIND       PRES   REMARKS
GOODLAND       LGT RAIN  58  55  90 NE18      29.75S
HAYS           PTSUNNY   43 N/A N/A NE10      29.68S
HILL CITY      CLOUDY    62  59  90 NE10      29.72F
RUSSELL        CLOUDY    70  64  81 NE8       29.65F
$$

KSZ061>065-074>080-084>089-272100-
SOUTHWEST KANSAS

CITY           SKY/WX    TMP DP  RH WIND       PRES   REMARKS
DODGE CITY     PTSUNNY   73  50  44 W9        29.69S
ELKHART          N/A     64  45  50 W17         N/A
GARDEN CITY    MOSUNNY   73  44  35 S14       29.68F
GREAT BEND     MOSUNNY   73  57  56 SW13      29.66F
LIBERAL        SUNNY     73  43  33 W17G24    29.72S
$$

KSZ066>073-081>083-090>101-272100-
SOUTHEAST KANSAS

CITY           SKY/WX    TMP DP  RH WIND       PRES   REMARKS
CHANUTE        LGT RAIN  73  66  78 S7        29.75R
COFFEYVILLE    CLOUDY    73  68  84 SE6       29.74F
HUTCHINSON     CLOUDY    78  67  68 SE13      29.67F
MEDICINE LODGE   N/A     78  56  46 W8        29.67F
NEWTON         PTSUNNY   73  63  68 SE8       29.73F
PARSONS        LGT RAIN  72  69  90 S3        29.76F
WICHITA INTL   PTSUNNY   78  67  68 VRB3      29.67F THUNDER
WICHITA JABRA  PTSUNNY   77  65  66 SE9       29.67F
WINFIELD       PTSUNNY   78  64  61 E9        29.69F
$$

KSZ007>012-019>026-033>040-048>060-102>105-272100-
NORTHEAST KANSAS

CITY           SKY/WX    TMP DP  RH WIND       PRES   REMARKS
CONCORDIA      CLOUDY    74  63  68 SE10      29.69F
EMPORIA        PTSUNNY   71  65  81 S9        29.71F
LAWRENCE       LGT RAIN  73  66  78 SW7       29.74R
MANHATTAN      PTSUNNY   77  64  64 S10       29.69F
OLATHE IND     CLOUDY    74  66  76 SW13      29.76R
OLATHE EXE     CLOUDY    76  65  68 SW10      29.75R
SALINA         MOSUNNY   79  65  62 SE14      29.67F
TOPEKA BILLARD CLOUDY    73  65  75 SE9       29.74R
TOPEKA FORBES  CLOUDY    75  67  76 S10       29.73S
$$



USA.gov is the U.S. government's official web portal to all federal, state and local government web resources and services.